OBJECT F, 61232

Orbit data source: Space-Track

You're viewing an Uncataloged Satellite

Recently launched and/or uncataloged satellites may have evolving metadata. Metadata may include but not limited to: Owner, Maufacturer, Bus, Motor, and Mission.

OBJECT F, 61232 is a Chinese satellite in SSO that was launched on Tue, 24 Sep 2024 UTC via a JIELONG-3 launch vehicle from the Yellow Sea Launch Area, China (YSLA). Unknown objects in Earth's orbit typically refer to objects detected orbiting the Earth but have not yet been identified or cataloged. These objects could be anything from previously untracked satellites, spent rocket stages, debris from satellite collisions, or even natural meteoroids temporarily captured by Earth's gravity.

Loading next visibility...
Identifier
61232, 2024-173F
Orbit
SSO
Country
Flag of CNCN / PRC
Related business
None
Manufacturer
Unknown
Mission
Operational Commercial Technology
Bus & Motor
Unknown
Mass
Unknown
Launch date (UTC)
2024-09-24 (2 years ago)
Launch vehicle
JIELONG-3
Launch site
Yellow Sea Launch Area, China (YSLA)
Object type
Unknown
Shape & HBR
Box + 3 Pan, 0.1 m
Radar Cross Section
0.135 m², Medium (>0.1 m² and < 1m²)

Expand to show TLE details & history
Last TLE update: 21 hours ago

TLE from 21 hours ago
0 OBJECT F
1 61232U 24173F   26170.98014411  .00168579  00000-0  97035-3 0  9998
2 61232  97.3496 268.0334 0004776 146.7163 213.4405 15.78224562 98044
Epoch: 2026-06-19T23:31Z
TLE epoch observation values (Epoch: 2026-06-19T23:31:24.451Z)
Latitude
0.00002°
Longitude
6.98018°
Altitude
341.318 km
Speed
7.702 km/s
True Right ascension
17h 52m 08s
True Declination
0° 00' 00"
Sunlit
Object was in full shadow at epoch
Visualization orbit readout
Latitude
Unknown
Longitude
Unknown
Altitude
Unknown
Speed
Unknown
Apparent Right ascension
Unknown
Apparent Declination
Unknown
Sunlit
N/A
Visualization observer readout
Local Sidereal Time
07:23:23
Azimuth
Unknown
Elevation
Unknown
Doppler factor
Unknown
Orbital elements
Apogee altitude
335.562 km
Perigee altitude
329.152 km
Semi-major axis
6,710.494 km
Eccentricity
0.00048
Inclination
97.3496°
RAAN
268.0334°
Arg. of periapsis
146.7163°
True anomaly
213.41036°
Mean anomaly
213.4405°
Eccentric anomaly
213.42543°
Mean motion
3.94831 °/min
Orbital period
91.18 mins
BSTAR
0.00097035
Loading maneuver chart data...
Computing Atmospheric mass density...
Loading historical data...
Loading historical data...
Loading historical data...
Loading historical data...
Loading historical data...
Loading historical data...
Loading historical data...

Documentation

Showing up to 5 results
|